This is the latest recevied weather packets stored in our database for station/object S54A-11. If no packets are shown the sender has not sent any weather packets the latest 10 day(s).
| Time | Temp. | Humidity | Pressure | Rain* | Wind** | Luminosity | Snow |
|---|---|---|---|---|---|---|---|
| 1777959854 | 17.78° C | 44% | 1014.7 hPa | - | - | - | - |
| 1777958954 | 19.44° C | 39% | 1014.7 hPa | - | - | - | - |
| 1777958054 | 17.22° C | 45% | 1014.8 hPa | - | - | - | - |
| 1777957154 | 13.89° C | 43% | 1014.8 hPa | - | - | - | - |
| 1777956254 | 11.67° C | 46% | 1014.7 hPa | - | - | - | - |
| 1777955354 | 11.11° C | 45% | 1014.7 hPa | - | - | - | - |
| 1777954454 | 10.56° C | 45% | 1014.8 hPa | - | - | - | - |
| 1777953554 | 10° C | 50% | 1014.7 hPa | - | - | - | - |
| 1777952654 | 10.56° C | 48% | 1014.8 hPa | - | - | - | - |
| 1777951754 | 10.56° C | 46% | 1014.7 hPa | - | - | - | - |
| 1777950854 | 11.11° C | 44% | 1014.8 hPa | - | - | - | - |
| 1777949954 | 11.11° C | 43% | 1014.8 hPa | - | - | - | - |
| 1777949054 | 11.11° C | 44% | 1015 hPa | - | - | - | - |
| 1777948154 | 11.11° C | 43% | 1015.2 hPa | - | - | - | - |
| 1777947254 | 11.11° C | 43% | 1015.2 hPa | - | - | - | - |
| 1777946353 | 11.67° C | 43% | 1015.3 hPa | - | - | - | - |
| 1777945453 | 12.22° C | 41% | 1015.3 hPa | - | - | - | - |
| 1777944553 | 12.22° C | 41% | 1015.4 hPa | - | - | - | - |
| 1777942753 | 13.33° C | 40% | 1015.5 hPa | - | - | - | - |
| 1777941853 | 13.33° C | 40% | 1015.5 hPa | - | - | - | - |
| 1777940953 | 13.33° C | 45% | 1015.7 hPa | - | - | - | - |
| 1777940053 | 14.44° C | 40% | 1015.8 hPa | - | - | - | - |
| 1777939153 | 14.44° C | 42% | 1015.9 hPa | - | - | - | - |
| 1777938253 | 13.89° C | 43% | 1016.1 hPa | - | - | - | - |
| 1777937353 | 13.89° C | 41% | 1016.2 hPa | - | - | - | - |
* Rain since midnight (hover to see other rain measurements)
** Current wind speed in m/s (hover to see current wind gust speed)